Regional Weather Roundup
Issued by NWS

Home | Current Version | Previous Version | Graphics & Text | Print | Product List | Glossary On
Versions: 1 2 3 4 5 6 7 8 9 10 11 12 13 14 15 16 17 18 19 20 21 22 23 24 25 26 27 28 29 30 31 32 33 34 35 36 37 38 39 40 41 42 43 44 45 46 47 48 49 50
000
ASUS43 KBIS 161510
RWRND

NORTH DAKOTA REGIONAL WEATHER ROUNDUP
NATIONAL WEATHER SERVICE BISMARCK ND
1000 AM CDT WED APR 16 2014

NOTE: "FAIR" INDICATES FEW OR NO CLOUDS BELOW 12,000 FEET WITH NO
SIGNIFICANT WEATHER AND/OR OBSTRUCTIONS TO VISIBILITY.


NDZ001>003-009>011-017-161600-
NORTHWEST NORTH DAKOTA

CITY           SKY/WX    TMP DP  RH WIND       PRES   REMARKS
WILLISTON      CLOUDY    26  21  81 E14       30.08R WCI  14
MINOT          CLOUDY    23  18  81 NE13      30.10R WCI  11
$$

NDZ018>021-031>035-040>046-161600-
SOUTHWEST NORTH DAKOTA

CITY           SKY/WX    TMP DP  RH WIND       PRES   REMARKS
BISMARCK       CLOUDY    28  23  81 E17       30.01R WCI  16
DICKINSON      CLOUDY    26  20  77 NE12      29.96R WCI  16
GARRISON         N/A     25  20  81 E14G24    30.04R WCI  13
HETTINGER ARPT PTSUNNY   27  19  72 NE17      29.94R WCI  14
$$

NDZ004>008-012>016-024-026-027-054-161600-
NORTHEAST NORTH DAKOTA

CITY           SKY/WX    TMP DP  RH WIND       PRES   REMARKS
GRAND FORKS    PTSUNNY   33  11  39 NE15      30.07R
GRND FRKS AFB  MOSUNNY   33  10  37 E14       30.11R
DEVILS LAKE    PTSUNNY   28  10  47 E20       30.08S WCI  15
$$

NDZ022-023-025-028>030-036>039-047>053-161600-
SOUTHEAST NORTH DAKOTA

CITY           SKY/WX    TMP DP  RH WIND       PRES   REMARKS
FARGO          CLOUDY    29  22  75 NE15      30.03R WCI  18
JAMESTOWN      CLOUDY    27  21  78 NE22      29.99R WCI  13
$$




USA.gov is the U.S. government's official web portal to all federal, state and local government web resources and services.